Other Public Products
Issued by NWS Grand Forks, ND

Home | Current Version | Previous Version | Text Only | Print | Product List | Glossary Off
Versions: 1 2 3 4 5 6 7 8 9 10 11 12 13 14 15 16 17 18 19 20 21 22 23 24 25 26 27 28 29 30 31 32 33 34 35 36 37 38 39 40 41 42 43 44 45 46 47 48 49 50

000
FPUS83 KFGF 220210
OPUFGF
PRAIRIE TO PINES WEATHER ROUNDUP
NATIONAL WEATHER SERVICE EASTERN NORTH DAKOTA/GRAND FORKS ND
900 PM CDT MON JUL 21 2014

 **SATELLITE DATA USED TO AUGMENT SKY COVER AT AUTOMATED STATIONS**
 *****  WEATHER ACROSS EASTERN NORTH DAKOTA  *****

CITY           SKY/WX    TMP DP  RH WIND       PRES   REMARKS
GRAND FORKS    TSTM      66  66 100 SW23G45   29.75R FOG
GRAND FORKS AF TSTM      68  68 100 N14G25    29.77R FOG
GRAND CITY NWS   N/A     64 N/A N/A W30         N/A
BUXTON         NOT AVBL
DEVILS LAKE    CLOUDY    66  61  82 E14       29.85R
FARGO          TSTM      71  65  81 NW24G45   29.78R SQUALL
WAHPETON ARPT  CLOUDY    82  72  69 S15       29.69R
$$

 *****  WEATHER ACROSS CENTRAL AND WESTERN NORTH DAKOTA  *****

CITY           SKY/WX    TMP DP  RH WIND       PRES   REMARKS
JAMESTOWN      LGT RAIN  68  62  81 N32G48    29.73F
BISMARCK       CLOUDY    67  63  87 N15       29.87R
MINOT          CLOUDY    66  63  90 N8        29.88R
MINOT AFB      CLOUDY    67  66  97 N7        29.87R
GARRISON         N/A     66  63  90 NE3       29.90R
WILLISTON      MOCLDY    74  57  55 NE10      29.95R
DICKINSON      MOCLDY    67  61  81 N14       29.94R
HETTINGER      CLEAR     71  63  75 N13G25    29.95R
$$

 *****  OTHER OBSERVATIONS NORTHEAST NORTH DAKOTA  *****

CITY           SKY/WX    TMP DP  RH WIND       PRES   REMARKS
WALHALLA         N/A     64  64 100 NE10        N/A
LANGDON        RAIN      64  63  94 NE14      29.82R
CAVALIER       RAIN      66  64  94 NE10      29.84R
GRAFTON        TSTM      66  66 100 N26G38    29.73F
CANDO          LGT RAIN  66  64  94 NE6       29.86R
FORT TOTTEN    NOT AVBL
ROLLA          FAIR      63  63 100 N12       29.86R
RUGBY          LGT RAIN  66  66 100 NE14G21   29.85R
 ***** THE ABOVE OBSERVATIONS ARE NON NWS ARE NOT QUALITY
        CONTROLLED AND MAY MIS-REPORT RAIN FOR SNOW...
$$

 *****  OTHER OBSERVATIONS SOUTHEAST NORTH DAKOTA *****

CITY           SKY/WX    TMP DP  RH WIND       PRES   REMARKS
COOPERSTOWN    NOT AVBL
VALLEY CITY    RAIN      68  68 100 NW33G48   29.74F
OAKES          NOT AVBL
GWINNER        MOCLDY    75  63  64 W23G40    29.79R
BUFFALO        NOT AVBL
WYNDMERE       NOT AVBL
 ***** THE ABOVE OBSERVATIONS ARE NON NWS ARE NOT QUALITY
       CONTROLLED AND MAY MIS-REPORT RAIN FOR SNOW...
$$

  *****  WEATHER ACROSS NORTHERN MINNESOTA  *****

CITY           SKY/WX    TMP DP  RH WIND       PRES   REMARKS
FLAG ISLAND    CLOUDY    70  64  83 N21       29.78F
WARROAD        CLOUDY    72  66  83 N26G32    29.76S
ROSEAU         CLOUDY    72  64  78 N22G30    29.74F
HALLOCK        TSTM      70  64  83 N10G31    29.77R
THF RVR FALLS  CLOUDY    73  72  94 NE14G22   29.63F THUNDER
HALSTAD          N/A     69  66  90 W29G45      N/A
FOSSTON        CLOUDY    82  73  74 S13G20    29.68F
BAUDETTE       MOCLDY    77  63  61 N18G26    29.76F
WASKISH        MOCLDY    81  73  78 CALM      29.74R
CROOKSTON      TSTM      70  68  94 N32G51    29.63F
$$
  *****  WEATHER ACROSS CENTRAL AND WEST MINNESOTA  *****

CITY           SKY/WX    TMP DP  RH WIND       PRES   REMARKS
BEMIDJI        MOCLDY    82  75  78 SE10      29.73R
PARK RAPIDS    CLOUDY    82  75  79 SE14      29.72F
WADENA         CLOUDY    81  73  78 S12       29.74R
DETROIT LAKES  CLOUDY    82  73  74 S13       29.71F
MOORHEAD       CLOUDY    84  81  89 S8G20     29.69R HX  98
FERGUS FALLS   CLOUDY    82  72  69 S17G25    29.69S
ELBOW LAKE     FAIR      80  74  82 S20G26    29.71F
MORRIS MN      MOCLDY    81  73  78 S14       29.71F
STAPLES        CLOUDY    82  73  74 S9G16     29.73F
WHEATON        MOCLDY    79  73  83 S13G20    29.71R
$$
  *****  WEATHER ELSEWHERE ACROSS MINNESOTA  *****

CITY           SKY/WX    TMP DP  RH WIND       PRES   REMARKS
DULUTH         MOCLDY    81  73  76 S10       29.83F
INTRNTL FALLS  MOCLDY    80  73  79 CALM      29.76F
ELY            PTCLDY    81  70  69 SE6       29.84F
CLOQUET        MOCLDY    81  72  74 SE5       29.83F
BRAINERD       CLOUDY    82  74  76 SE9       29.76F
HIBBING        PTCLDY    82  74  76 S6        29.80F
ALEXANDRIA     CLOUDY    81  73  76 S16G23    29.76F
SAINT CLOUD    CLOUDY    85  74  69 S13G23    29.78S HX  92
MINNEAPOLIS    MOCLDY    85  74  69 SE13      29.83F HX  92
$$

  *****  WEATHER ACROSS SOUTH DAKOTA  *****

CITY           SKY/WX    TMP DP  RH WIND       PRES   REMARKS
SIOUX FALLS    PTCLDY    84  78  82 S12       29.77F HX  95
BROOKINGS      NOT AVBL
WATERTOWN      CLEAR     81  76  84 S14       29.74F
HURON          CLEAR     87  77  72 S7        29.72R HX  99
SISSETON         N/A     81  77  88 S9        29.69R
ABERDEEN       MOCLDY    80  71  74 NW18      29.74R THUNDER
MITCHELL       PTCLDY    88  80  77 S7        29.74R HX 104
PIERRE         CLEAR     88  66  48 NW8       29.76R HX  90
MOBRIDGE       PTCLDY    72  64  76 N10       29.79R
RAPID CITY     PTCLDY    80  58  46 N16       29.91R
$$

  *****  SOME WEATHER IN NEARBY STATES *****

CITY           SKY/WX    TMP DP  RH WIND       PRES   REMARKS
GLASGOW MT     MOCLDY    78  51  38 CALM      29.95R
GREAT FALLS MT SUNNY     78  39  24 NW9       30.00R
CHEYENNE WY    PTCLDY    79  42  26 S6        30.18F
SCOTTSBLUFF NE PTCLDY    81  56  42 SE9       29.99S
OMAHA NE       MOCLDY    91  77  63 S15       29.82S HX 104
DES MOINES IA  PTCLDY    86  76  71 S9        29.90S HX  96
DAVENPORT IA   CLEAR     79  68  69 S12       30.00S
CHICAGO IL     CLEAR     78  63  59 S8        30.06S
EAU CLAIRE WI  CLOUDY    83  71  67 S14       29.91F
LA CROSSE WI   MOCLDY    83  68  60 S8        29.93R
$$

  *****  SOME NATIONAL WEATHER *****

CITY           SKY/WX    TMP DP  RH WIND       PRES   REMARKS
LA GUARDIA NY  PTCLDY    74  61  63 S8        30.17R
RALEIGH NC     CLOUDY    74  70  87 CALM      30.16R
ATLANTA GA     CLOUDY    78  72  81 E3        30.09R
NEW ORLEANS LA PTCLDY    83  71  67 N3        29.99R
OKLAHOMA CITY  PTCLDY    84  72  67 S6        30.00R
ALBUQUERQUE NM MOCLDY    91  39  16 W8        30.15R
SALT LAKE CITY MOCLDY    91  27  10 S9        30.00R
LOS ANGELES CA MOSUNNY   71  62  73 W16G24    30.00S
BOISE ID       CLOUDY    81  51  35 CALM      30.01S
SEATTLE WA     MOSUNNY   73  49  42 W5        29.99S
$$

*** WEATHER ACROSS MANITOBA...SASKATCHEWAN AND ONTARIO ***
                ***ONTARIO***

CITY           SKY/WX    TMP DP  RH WIND       PRES   REMARKS
GERALDTON      MOCLDY    79  68  69 SW9       29.88R
THUNDER BAY    MOCLDY    68  64  88 NE6       29.86S
SIOUX LOOKOUT  TSTM      68  64  88 E5        29.85F
TORONTO        PTCLDY    73  61  64 SE6       30.12R
BIG TROUT LK   MOCLDY    66  52  59 NW9G17    29.81S
PICKLE LAKE    MOCLDY    75  52  43 NW3       29.85S
DRYDEN         CLOUDY    68  66  94 NE7       29.84F
KENORA         TSTM      68  64  88 NE14      29.82F
$$
                *** MANITOBA***

CITY           SKY/WX    TMP DP  RH WIND       PRES   REMARKS
BRANDON        CLOUDY    66  64  94 N6        29.86F
DAUPHIN        PTCLDY    70  59  68 NW3       29.89R
ISLAND LAKE    MOCLDY    68  52  56 N8        29.87S
PILOT MOUND      N/A     63  59  88 N12G17      N/A
THE PAS        PTCLDY    70  48  46 N5        29.89F
THOMPSON       MOCLDY    55  50  82 NE7       29.97
WINNIPEG       LGT RAIN  66  61  82 NE9       29.81F
LYNN LAKE      MOCLDY    59  52  77 N6        29.98S
CHURCHILL      PTCLDY    52  45  76 N5        29.92R
GILLAM         MOCLDY    54  48  82 N7        29.94R
$$
                ***SASKATCHEWAN***

CITY           SKY/WX    TMP DP  RH WIND       PRES   REMARKS
ESTEVAN        MOCLDY    68  63  83 N3        29.95R
KINDERSLEY     MOSUNNY   66  57  72 N6        30.00R
LLOYDMINSTER   MOSUNNY   66  50  55 N5        30.00R
PRINCE ALBERT  MOCLDY    70  55  60 NW2       29.95R
REGINA         MOCLDY    68  54  60 E2        29.97R
YORKTON        MOCLDY    68  61  77 NE3       29.94R


USA.gov is the U.S. government's official web portal to all federal, state and local government web resources and services.